GW0309 Weather Reports


Display with metric or nautical units.
time (UTC)temp
F
wind
direction
speed
MPH
gust
MPH
rain 1hr
in
rain 24hr
in
rain mn
in
humidity
%
barometer
mb
20260903100823 0 166 2.0 2.0 0.00 0.00 0.00 1063.7
20260903100317 0 163 1.0 3.0 0.00 0.00 0.00 1063.7
20260903095815 0 169 1.0 5.0 0.00 0.00 0.00 1063.5
20260903095308 0 166 2.0 3.0 0.00 0.00 0.00 1063.7
20260903094805 0 175 1.0 3.0 0.00 0.00 0.00 1063.5
20260903094259 0 154 1.0 5.0 0.00 0.00 0.00 1063.5
20260903093754 0 150 1.0 2.0 0.00 0.00 0.00 1063.4
20260903093249 0 170 3.0 5.0 0.00 0.00 0.00 1063.5
20260903092744 0 167 1.0 3.0 0.00 0.00 0.00 1063.4
20260903092239 0 171 2.0 3.0 0.00 0.00 0.00 1063.5
20260903091737 0 149 1.0 1.0 0.00 0.00 0.00 1063.4
20260903091226 0 160 2.0 3.0 0.00 0.00 0.00 1063.4
20260903090721 0 170 1.0 3.0 0.00 0.00 0.00 1063.5
20260903090220 0 164 2.0 5.0 0.00 0.00 0.00 1063.0
20260903085714 0 179 2.0 3.0 0.00 0.00 0.00 1063.5
20260903085209 0 172 2.0 5.0 0.00 0.00 0.00 1063.5
20260903084707 0 160 1.0 2.0 0.00 0.00 0.00 1063.5
20260903084202 0 165 1.0 2.0 0.00 0.00 0.00 1063.0
20260903083657 0 173 1.0 3.0 0.00 0.00 0.00 1063.4
20260903083151 0 151 4.0 5.0 0.00 0.00 0.00 1063.4
20260903082646 0 135 1.0 3.0 0.00 0.00 0.00 1063.1
20260903082142 0 188 1.0 3.0 0.00 0.00 0.00 1063.4
20260903081636 0 189 1.0 3.0 0.00 0.00 0.00 1063.1
20260903081132 0 183 3.0 3.0 0.00 0.00 0.00 1063.3
20260903080628 0 178 2.0 6.0 0.00 0.00 0.00 1063.0
20260903080125 0 170 1.0 2.0 0.00 0.00 0.00 1063.3
20260903075618 0 143 3.0 3.0 0.00 0.00 0.00 1063.1
20260903075114 0 189 3.0 3.0 0.00 0.00 0.00 1063.1
20260903074613 0 184 3.0 3.0 0.00 0.00 0.00 1063.5
20260903074108 0 166 1.0 3.0 0.00 0.00 0.00 1063.1
20260903073604 0 159 1.0 2.0 0.00 0.00 0.00 1063.3
20260903073059 0 182 3.0 3.0 0.00 0.00 0.00 1063.3
20260903072555 0 170 3.0 3.0 0.00 0.00 0.00 1063.3
20260903072051 0 165 2.0 2.0 0.00 0.00 0.00 1063.3
20260903071548 0 121 4.0 6.0 0.00 0.00 0.00 1063.1
20260903071047 0 178 2.0 5.0 0.00 0.00 0.00 1063.1
20260903070542 0 170 3.0 3.0 0.00 0.00 0.00 1063.3
20260903070038 0 168 3.0 3.0 0.00 0.00 0.00 1063.5
20260903065537 0 157 2.0 5.0 0.00 0.00 0.00 1063.5
20260903065036 0 157 2.0 6.0 0.00 0.00 0.00 1063.5
20260903064531 0 162 2.0 3.0 0.00 0.00 0.00 1063.1
20260903064027 0 171 2.0 3.0 0.00 0.00 0.00 1063.4
20260903063522 0 184 3.0 6.0 0.00 0.00 0.00 1063.4
20260903063017 0 168 3.0 3.0 0.00 0.00 0.00 1063.4
20260903062512 0 165 3.0 3.0 0.00 0.00 0.00 1063.3
20260903062008 0 167 2.0 2.0 0.00 0.00 0.00 1063.6
20260903061503 0 168 1.0 5.0 0.00 0.00 0.00 1063.4
20260903060957 0 166 4.0 6.0 0.00 0.00 0.00 1063.3
20260903060452 0 158 1.0 3.0 0.00 0.00 0.00 1063.6
20260903055950 0 158 2.0 6.0 0.00 0.00 0.00 1063.4
20260903055448 0 167 2.0 3.0 0.00 0.00 0.00 1063.5
20260903054943 0 171 3.0 5.0 0.00 0.00 0.00 1063.3
20260903054437 0 169 2.0 5.0 0.00 0.00 0.00 1063.1
20260903053934 0 152 3.0 5.0 0.00 0.00 0.00 1063.0
20260903053433 0 168 1.0 2.0 0.00 0.00 0.00 1063.4
20260903052931 0 162 1.0 2.0 0.00 0.00 0.00 1063.3
20260903052426 0 153 2.0 3.0 0.00 0.00 0.00 1063.3
20260903051921 0 162 2.0 3.0 0.00 0.00 0.00 1063.3
20260903051416 0 188 1.0 2.0 0.00 0.00 0.00 1063.1
20260903050912 0 150 1.0 2.0 0.00 0.00 0.00 1063.1
20260903050410 0 169 3.0 5.0 0.00 0.00 0.00 1063.1
20260903045905 0 160 2.0 3.0 0.00 0.00 0.00 1063.1
20260903045400 0 169 1.0 3.0 0.00 0.00 0.00 1063.3
20260903044852 0 147 1.0 6.0 0.00 0.00 0.00 1063.0
20260903044352 0 165 2.0 5.0 0.00 0.00 0.00 1063.0
20260903043849 0 165 2.0 3.0 0.00 0.00 0.00 1063.0
20260903043343 0 162 2.0 3.0 0.00 0.00 0.00 1063.0
20260903042842 0 192 3.0 3.0 0.00 0.00 0.00 1063.0
20260903042337 0 169 1.0 3.0 0.00 0.00 0.00 1063.0
20260903041833 0 144 1.0 2.0 0.00 0.00 0.00 1063.0
20260903041330 0 156 2.0 3.0 0.00 0.00 0.00 1063.1
20260903040825 0 162 1.0 3.0 0.00 0.00 0.00 1062.9
20260903040324 0 178 2.0 3.0 0.00 0.00 0.00 1062.9
20260903035820 0 159 2.0 6.0 0.00 0.00 0.00 1062.9
20260903035315 0 169 3.0 3.0 0.00 0.00 0.00 1063.0
20260903034810 0 172 3.0 5.0 0.00 0.00 0.00 1063.1
20260903034305 0 151 1.0 3.0 0.00 0.00 0.00 1062.9
20260903033801 0 175 3.0 5.0 0.00 0.00 0.00 1062.9
20260903033255 0 158 2.0 3.0 0.00 0.00 0.00 1062.8
20260903032750 0 189 2.0 5.0 0.00 0.00 0.00 1062.7
20260903032246 0 160 2.0 3.0 0.00 0.00 0.00 1062.9
20260903031741 0 175 2.0 5.0 0.00 0.00 0.00 1063.0
20260903031235 0 178 2.0 3.0 0.00 0.00 0.00 1062.8
20260903030731 0 161 2.0 2.0 0.00 0.00 0.00 1063.0
20260903030227 0 184 3.0 5.0 0.00 0.00 0.00 1063.0
20260903025722 0 163 2.0 3.0 0.00 0.00 0.00 1063.1
20260903025218 0 166 3.0 3.0 0.00 0.00 0.00 1063.0
20260903024717 0 172 2.0 3.0 0.00 0.00 0.00 1062.9
20260903024216 0 148 2.0 2.0 0.00 0.00 0.00 1062.8
20260903023713 0 155 1.0 3.0 0.00 0.00 0.00 1062.9
20260903023208 0 184 3.0 3.0 0.00 0.00 0.00 1062.7
20260903022707 0 159 1.0 3.0 0.00 0.00 0.00 1062.7
20260903022206 0 179 3.0 3.0 0.00 0.00 0.00 1062.7
20260903021701 0 154 2.0 3.0 0.00 0.00 0.00 1062.4
20260903021156 0 156 1.0 2.0 0.00 0.00 0.00 1062.5
20260903020651 0 150 1.0 2.0 0.00 0.00 0.00 1062.5
20260903020151 0 148 1.0 2.0 0.00 0.00 0.00 1062.4
20260903015646 0 157 1.0 1.0 0.00 0.00 0.00 1062.4
20260903015141 0 145 0.0 1.0 0.00 0.00 0.00 1062.1
20260903014636 0 150 0.0 1.0 0.00 0.00 0.00 1062.0
20260903014136 0 141 0.0 0.0 0.00 0.00 0.00 1062.3
20260903013630 0 142 0.0 0.0 0.00 0.00 0.00 1062.0
20260903013125 0 145 0.0 0.0 0.00 0.00 0.00 1062.1
20260903012624 0 145 0.0 1.0 0.00 0.00 0.00 1062.0
20260903012123 0 145 0.0 1.0 0.00 0.00 0.00 1061.8
20260903011622 0 152 0.0 1.0 0.00 0.00 0.00 1062.0
20260903011117 0 145 0.0 1.0 0.00 0.00 0.00 1061.8
20260903010613 0 144 0.0 1.0 0.00 0.00 0.00 1061.7
20260903010111 0 145 0.0 1.0 0.00 0.00 0.00 1061.5
20260903005606 0 158 1.0 2.0 0.00 0.00 0.00 1061.8
20260903005102 0 149 0.0 1.0 0.00 0.00 0.00 1061.9
20260903004602 0 163 1.0 2.0 0.00 0.00 0.00 1061.7
20260903004057 0 145 0.0 1.0 0.00 0.00 0.00 1061.6
20260903003552 0 160 2.0 2.0 0.00 0.00 0.00 1061.8
20260903003047 0 155 1.0 2.0 0.00 0.00 0.00 1061.8
20260903002542 0 169 1.0 2.0 0.00 0.00 0.00 1061.9
20260903002037 0 161 1.0 3.0 0.00 0.00 0.00 1061.8
20260903001532 0 157 1.0 7.0 0.00 0.00 0.00 1061.7
20260903001031 0 169 1.0 2.0 0.00 0.00 0.00 1061.8
20260903000527 0 141 0.0 2.0 0.00 0.00 0.00 1061.7
20260903000026 0 184 3.0 5.0 0.00 0.00 0.00 1061.7
20260902235520 0 194 1.0 3.0 0.00 0.00 0.00 1061.7
20260902235014 0 135 1.0 1.0 0.00 0.00 0.00 1061.7
20260902234509 0 142 1.0 2.0 0.00 0.00 0.00 1061.9
20260902234008 0 174 1.0 5.0 0.00 0.00 0.00 1061.8
20260902233502 0 184 1.0 2.0 0.00 0.00 0.00 1061.7
20260902232956 0 132 2.0 3.0 0.00 0.00 0.00 1061.8
20260902232450 0 151 1.0 1.0 0.00 0.00 0.00 1061.8
20260902231944 0 132 2.0 6.0 0.00 0.00 0.00 1061.6
20260902231439 0 131 1.0 5.0 0.00 0.00 0.00 1061.8
20260902230934 0 146 4.0 7.0 0.00 0.00 0.00 1061.8
20260902230433 0 157 1.0 3.0 0.00 0.00 0.00 1061.8
20260902225928 0 135 3.0 5.0 0.00 0.00 0.00 1061.8
20260902225423 0 178 6.0 7.0 0.00 0.00 0.00 1062.0
20260902224921 0 148 2.0 5.0 0.00 0.00 0.00 1061.9
20260902224416 0 205 4.0 7.0 0.00 0.00 0.00 1062.1
20260902223912 0 140 4.0 7.0 0.00 0.00 0.00 1062.2
20260902223407 0 177 4.0 8.0 0.00 0.00 0.00 1062.1
20260902222901 0 160 0.0 5.0 0.00 0.00 0.00 1062.2
20260902222400 0 172 1.0 5.0 0.00 0.00 0.00 1062.1
20260902221859 0 159 6.0 8.0 0.00 0.00 0.00 1062.2
20260902221359 0 142 3.0 8.0 0.00 0.00 0.00 1062.2
20260902220855 0 188 7.0 9.0 0.00 0.00 0.00 1061.9
20260902220354 0 149 2.0 5.0 0.00 0.00 0.00 1061.9
20260902215849 0 179 5.0 6.0 0.00 0.00 0.00 1062.1
20260902215344 0 184 4.0 7.0 0.00 0.00 0.00 1062.0
20260902214840 0 174 4.0 9.0 0.00 0.00 0.00 1061.9
20260902214339 0 158 6.0 9.0 0.00 0.00 0.00 1062.1
20260902213834 0 187 2.0 5.0 0.00 0.00 0.00 1062.2
20260902213330 0 141 3.0 7.0 0.00 0.00 0.00 1062.2
20260902212828 0 194 2.0 6.0 0.00 0.00 0.00 1062.2
20260902212325 0 175 3.0 8.0 0.00 0.00 0.00 1062.4
20260902211822 0 150 4.0 9.0 0.00 0.00 0.00 1062.2
20260902211317 0 176 3.0 9.0 0.00 0.00 0.00 1062.4
20260902210812 0 177 1.0 5.0 0.00 0.00 0.00 1062.2
20260902210306 0 164 2.0 6.0 0.00 0.00 0.00 1062.5
20260902205804 0 287 4.0 5.0 0.00 0.00 0.00 1062.5
20260902205259 0 196 1.0 3.0 0.00 0.00 0.00 1062.7
20260902204754 0 164 3.0 5.0 0.00 0.00 0.00 1062.6
20260902204250 0 161 3.0 6.0 0.00 0.00 0.00 1062.4
20260902203745 0 147 1.0 5.0 0.00 0.00 0.00 1062.7
20260902203244 0 196 3.0 10.0 0.00 0.00 0.00 1062.7
20260902202740 0 157 3.0 7.0 0.00 0.00 0.00 1062.8
20260902202236 0 170 4.0 6.0 0.00 0.00 0.00 1062.7
20260902201733 0 135 1.0 3.0 0.00 0.00 0.00 1063.0
20260902201232 0 140 2.0 7.0 0.00 0.00 0.00 1063.1
20260902200727 0 159 4.0 7.0 0.00 0.00 0.00 1063.0
20260902200223 0 227 2.0 5.0 0.00 0.00 0.00 1063.1
20260902195718 0 147 2.0 8.0 0.00 0.00 0.00 1063.1
20260902195217 0 126 0.0 2.0 0.00 0.00 0.00 1063.4
20260902194716 0 99 0.0 1.0 0.00 0.00 0.00 1063.4
20260902194212 0 123 2.0 3.0 0.00 0.00 0.00 1063.5
20260902193707 0 136 2.0 2.0 0.00 0.00 0.00 1063.6
20260902193203 0 184 3.0 5.0 0.00 0.00 0.00 1063.7
20260902192701 0 180 1.0 5.0 0.00 0.00 0.00 1063.6
20260902192200 0 168 2.0 3.0 0.00 0.00 0.00 1064.0
20260902191655 0 184 3.0 6.0 0.00 0.00 0.00 1063.8
20260902191149 0 136 3.0 6.0 0.00 0.00 0.00 1063.8
20260902190645 0 159 5.0 9.0 0.00 0.00 0.00 1063.8
20260902190140 0 144 2.0 7.0 0.00 0.00 0.00 1064.0
20260902185636 0 151 1.0 6.0 0.00 0.00 0.00 1064.1
20260902185131 0 163 3.0 7.0 0.00 0.00 0.00 1063.8
20260902184626 0 187 1.0 5.0 0.00 0.00 0.00 1064.0
20260902184122 0 184 1.0 3.0 0.00 0.00 0.00 1064.1
20260902183618 0 157 2.0 3.0 0.00 0.00 0.00 1064.1
20260902183114 0 182 3.0 7.0 0.00 0.00 0.00 1064.3
20260902182610 0 210 3.0 3.0 0.00 0.00 0.00 1064.1
20260902182106 0 173 4.0 6.0 0.00 0.00 0.00 1064.5
20260902181602 0 252 1.0 3.0 0.00 0.00 0.00 1064.2
20260902181101 0 219 2.0 3.0 0.00 0.00 0.00 1064.4
20260902180601 0 239 2.0 3.0 0.00 0.00 0.00 1064.6
20260902180057 0 230 3.0 5.0 0.00 0.00 0.00 1064.5
20260902175556 0 160 2.0 3.0 0.00 0.00 0.00 1064.8
20260902175052 0 196 1.0 2.0 0.00 0.00 0.00 1064.7
20260902174549 0 145 0.0 1.0 0.00 0.00 0.00 1064.7
20260902174044 0 171 1.0 2.0 0.00 0.00 0.00 1064.6
20260902173543 0 172 2.0 5.0 0.00 0.00 0.00 1064.9
20260902173038 0 183 4.0 6.0 0.00 0.00 0.00 1065.0
20260902172533 0 167 1.0 3.0 0.00 0.00 0.00 1065.3
20260902172028 0 228 3.0 8.0 0.00 0.00 0.00 1065.2
20260902171524 0 191 3.0 6.0 0.00 0.00 0.00 1065.3
20260902171020 0 174 1.0 3.0 0.00 0.00 0.00 1065.1
20260902170514 0 186 2.0 6.0 0.00 0.00 0.00 1064.9
20260902170011 0 253 3.0 6.0 0.00 0.00 0.00 1065.2
20260902165509 0 146 1.0 2.0 0.00 0.00 0.00 1065.3
20260902165004 0 175 3.0 5.0 0.00 0.00 0.00 1065.6
20260902164459 0 127 3.0 5.0 0.00 0.00 0.00 1065.6
20260902163958 0 237 2.0 3.0 0.00 0.00 0.00 1065.7
20260902163454 0 150 3.0 5.0 0.00 0.00 0.00 1065.5
20260902162951 0 201 3.0 3.0 0.00 0.00 0.00 1065.7
20260902162446 0 195 1.0 5.0 0.00 0.00 0.00 1065.6
20260902161941 0 215 3.0 5.0 0.00 0.00 0.00 1065.6
20260902161436 0 82 2.0 3.0 0.00 0.00 0.00 1065.6
20260902160932 0 188 2.0 5.0 0.00 0.00 0.00 1065.7
20260902160427 0 171 3.0 6.0 0.00 0.00 0.00 1066.0
20260902155925 0 173 4.0 8.0 0.00 0.00 0.00 1065.8
20260902155420 0 250 4.0 8.0 0.00 0.00 0.00 1066.0
20260902154915 0 251 5.0 10.0 0.00 0.00 0.00 1065.8
20260902154410 0 189 3.0 8.0 0.00 0.00 0.00 1066.0
20260902153909 0 190 3.0 6.0 0.00 0.00 0.00 1065.8
20260902153408 0 180 3.0 7.0 0.00 0.00 0.00 1066.0
20260902152904 0 221 4.0 7.0 0.00 0.00 0.00 1065.8
20260902152400 0 205 3.0 7.0 0.00 0.00 0.00 1066.0
20260902151855 0 231 3.0 3.0 0.00 0.00 0.00 1066.1
20260902151350 0 286 5.0 9.0 0.00 0.00 0.00 1065.7
20260902150845 0 257 5.0 11.0 0.00 0.00 0.00 1065.6
20260902150341 0 163 2.0 5.0 0.00 0.00 0.00 1065.8
20260902145841 0 182 2.0 5.0 0.00 0.00 0.00 1065.6
20260902145336 0 258 3.0 10.0 0.00 0.00 0.00 1066.0
20260902144831 0 147 1.0 7.0 0.00 0.00 0.00 1065.7
20260902144327 0 157 2.0 2.0 0.00 0.00 0.00 1065.8
20260902143821 0 151 1.0 5.0 0.00 0.00 0.00 1065.8
20260902143316 0 152 2.0 2.0 0.00 0.00 0.00 1065.8
20260902142812 0 209 2.0 5.0 0.00 0.00 0.00 1066.1
20260902142308 0 164 2.0 6.0 0.00 0.00 0.00 1065.6
20260902141803 0 148 1.0 2.0 0.00 0.00 0.00 1065.6
20260902141258 0 148 1.0 2.0 0.00 0.00 0.00 1065.6
20260902140752 0 134 0.0 2.0 0.00 0.00 0.00 1065.7
20260902140248 0 193 1.0 2.0 0.00 0.00 0.00 1065.5
20260902135747 0 158 2.0 2.0 0.00 0.00 0.00 1065.5
20260902135243 0 166 2.0 2.0 0.00 0.00 0.00 1065.8
20260902134742 0 145 1.0 5.0 0.00 0.00 0.00 1066.0
20260902134237 0 161 2.0 5.0 0.00 0.00 0.00 1065.6
20260902133733 0 154 1.0 2.0 0.00 0.00 0.00 1066.1
20260902133231 0 139 1.0 3.0 0.00 0.00 0.00 1066.0
20260902132727 0 146 1.0 2.0 0.00 0.00 0.00 1065.7
20260902132217 0 164 3.0 5.0 0.00 0.00 0.00 1065.8
20260902131712 0 212 3.0 5.0 0.00 0.00 0.00 1065.8
20260902131208 0 149 1.0 2.0 0.00 0.00 0.00 1066.0
20260902130703 0 148 0.0 2.0 0.00 0.00 0.00 1065.8
20260902130159 0 134 2.0 2.0 0.00 0.00 0.00 1066.0
20260902125653 0 157 1.0 1.0 0.00 0.00 0.00 1066.0
20260902125150 0 155 1.0 2.0 0.00 0.00 0.00 1065.8
20260902124641 0 151 1.0 2.0 0.00 0.00 0.00 1065.8
20260902124141 0 148 1.0 3.0 0.00 0.00 0.00 1065.8
20260902123636 0 163 1.0 3.0 0.00 0.00 0.00 1065.7
20260902123131 0 143 1.0 2.0 0.00 0.00 0.00 1065.7
20260902122625 0 163 1.0 3.0 0.00 0.00 0.00 1065.8
20260902122120 0 138 1.0 2.0 0.00 0.00 0.00 1065.6
20260902121615 0 149 0.0 2.0 0.00 0.00 0.00 1065.6
20260902121110 0 159 1.0 1.0 0.00 0.00 0.00 1065.5
20260902120606 0 151 1.0 2.0 0.00 0.00 0.00 1065.4
20260902115557 0 157 2.0 3.0 0.00 0.00 0.00 1065.5
20260902115053 0 187 3.0 5.0 0.00 0.00 0.00 1065.4
20260902114549 0 162 1.0 3.0 0.00 0.00 0.00 1065.3
20260902114048 0 153 1.0 3.0 0.00 0.00 0.00 1065.3
20260902113544 0 155 1.0 2.0 0.00 0.00 0.00 1065.2
20260902113039 0 163 1.0 2.0 0.00 0.00 0.00 1065.1
20260902112534 0 152 1.0 1.0 0.00 0.00 0.00 1065.2
20260902112031 0 163 1.0 3.0 0.00 0.00 0.00 1065.2
20260902111527 0 160 1.0 2.0 0.00 0.00 0.00 1065.0
20260902111022 0 162 4.0 6.0 0.00 0.00 0.00 1065.2
20260902110519 0 162 1.0 3.0 0.00 0.00 0.00 1065.1
20260902110014 0 167 2.0 3.0 0.00 0.00 0.00 1065.0
20260902105509 0 179 2.0 5.0 0.00 0.00 0.00 1064.9
20260902105008 0 154 2.0 3.0 0.00 0.00 0.00 1065.0
20260902104504 0 147 1.0 2.0 0.00 0.00 0.00 1065.1
20260902103958 0 163 2.0 5.0 0.00 0.00 0.00 1064.7
20260902103454 0 150 2.0 2.0 0.00 0.00 0.00 1065.0
20260902102949 0 163 1.0 2.0 0.00 0.00 0.00 1064.9
20260902102446 0 155 2.0 2.0 0.00 0.00 0.00 1064.9
20260902101942 0 156 1.0 2.0 0.00 0.00 0.00 1064.9
20260902101442 0 158 1.0 1.0 0.00 0.00 0.00 1064.8